[[{"header":{"parameterUnit":"m.s-1","parameterCategory":1,"la1":30.2991,"la2":30.254,"lo1":-89.0895,"lo2":-89.0444,"dy":0.0017,"dx":0.0017,"nx":28,"ny":28,"refTime":"2025-07-03T21:00:00:Z","depth":0,"parameterNumber":2,"parameterNumberName":"U-component_of_WINDS"},"data":[0,0,0,0,0,0,0,0,0,0,0,0,0,0,0,0,0,0,0,0,0,0,0,0,0,0,0,0,0,0,0,0,0,0,0,0,0,0,0,0,0,0,0,0,0,0,0,0,0,0,0,0,0,0,0,0,0,0,-0.3408,-0.3408,0,-0.3371,-0.337,-0.337,-0.3363,-0.3363,-0.3363,-0.3363,-0.3324,-0.3323,-0.3322,0,0,0,0,0,0,0,0,0,0,0,0,0,-0.347,-0.3469,-0.3408,-0.3408,-0.3407,-0.3371,-0.337,-0.337,-0.3363,-0.3363,-0.3363,-0.3364,-0.3325,-0.3323,-0.3321,0,0,0,0,0,0,0,0,0,0,0,0,0,-0.3439,-0.3469,-0.3408,-0.3399,-0.3398,-0.3371,-0.337,-0.337,-0.3362,-0.3363,-0.3363,-0.3364,-0.3325,-0.3323,-0.3321,-0.33,0,0,-0.3315,-0.3314,0,0,0,0,0,0,0,0,-0.3441,-0.3437,-0.3401,-0.34,-0.3398,-0.3372,-0.3378,-0.3346,-0.3362,-0.3376,-0.3363,-0.3364,-0.334,-0.3336,-0.3328,-0.3298,-0.3297,-0.3315,-0.3314,-0.3313,-0.3312,0,0,0,0,0,0,0,-0.3443,-0.3438,-0.3393,-0.3401,-0.3399,-0.3396,-0.3392,-0.3372,-0.3356,-0.3375,-0.3374,-0.337,-0.3339,-0.333,-0.3327,-0.3296,-0.3315,-0.3313,-0.3312,-0.3311,-0.3244,-0.3243,0,0,0,0,0,0,-0.3447,-0.344,-0.3395,-0.3392,-0.3421,-0.3395,-0.339,-0.338,-0.3356,-0.3353,-0.337,-0.337,-0.3334,-0.333,-0.3326,-0.3298,-0.3313,-0.3311,-0.331,-0.3244,-0.3244,-0.3243,0,0,0,0,0,0,-0.3449,-0.3443,-0.3396,-0.3416,-0.341,-0.3393,-0.3382,-0.3379,-0.337,-0.3352,-0.3349,-0.3364,-0.3334,-0.3329,-0.3306,-0.3296,-0.331,-0.3308,-0.3245,-0.3244,-0.3243,-0.3242,0,0,0,0,0,0,-0.345,-0.3444,-0.3437,-0.3416,-0.3409,-0.3378,-0.3381,-0.3378,-0.3367,-0.3367,-0.3346,-0.3343,-0.3334,-0.3309,-0.3304,-0.3294,-0.3307,-0.3246,-0.3245,-0.3244,-0.3243,-0.3242,-0.324,0,0,0,0,0,-0.3453,-0.3438,-0.3436,-0.3431,-0.34,-0.3377,-0.3373,-0.3363,-0.3366,-0.3358,-0.3346,-0.3343,-0.3298,-0.3307,-0.3301,-0.329,-0.3246,-0.3245,-0.3244,-0.3244,-0.3242,-0.324,0,0,0,0,0,0,-0.3458,-0.3436,-0.3433,-0.3412,-0.3396,-0.3376,-0.3366,-0.3362,-0.3345,-0.3346,-0.3334,-0.3329,-0.3306,-0.3296,-0.3306,-0.3267,-0.3272,-0.327,-0.3275,-0.3273,-0.3271,-0.3274,-0.3305,0,0,0,0,0,-0.3457,-0.3442,-0.3422,-0.3405,-0.3398,-0.3383,-0.3373,-0.3366,-0.335,-0.3343,-0.333,-0.3313,-0.3295,-0.3283,-0.3266,-0.3242,-0.3236,-0.3231,-0.323,-0.3229,-0.3226,-0.321,-0.3207,-0.3238,-0.3238,-0.3238,0,0,-0.3455,-0.344,-0.3431,-0.3406,-0.3393,-0.3376,-0.3378,-0.336,-0.3347,-0.3341,-0.3318,-0.3307,-0.3287,-0.3263,-0.3252,-0.3254,-0.3216,-0.3227,-0.3226,-0.3224,-0.3208,-0.3205,-0.3203,-0.3237,-0.3238,-0.3238,0,0,-0.3441,-0.3429,-0.3412,-0.3399,-0.338,-0.337,-0.3365,-0.3345,-0.3337,-0.3314,-0.3308,-0.3292,-0.3262,-0.3247,-0.3236,-0.3214,-0.321,-0.3209,-0.32,-0.3185,-0.3182,-0.318,-0.317,-0.3166,-0.3206,-0.3206,-0.3206,0,-0.344,-0.3415,-0.3404,-0.3386,-0.3374,-0.3367,-0.3349,-0.3337,-0.3313,-0.3304,-0.3307,-0.3267,-0.3253,-0.3224,-0.3219,-0.3211,-0.3204,-0.3211,-0.3183,-0.3181,-0.3179,-0.3169,-0.3165,-0.3206,-0.3206,-0.3206,-0.3206,0,-0.3413,-0.3396,-0.3384,-0.336,-0.3347,-0.3329,-0.3315,-0.3303,-0.3296,-0.3285,-0.326,-0.3244,-0.3222,-0.3214,-0.3209,-0.3184,-0.3185,-0.3186,-0.3191,-0.3176,-0.3166,-0.3162,-0.3206,-0.3206,-0.3206,-0.3206,0,0,-0.3404,-0.3372,-0.3368,-0.3356,-0.3333,-0.3318,-0.3299,-0.3277,-0.3266,-0.3249,-0.3231,-0.3204,-0.3203,-0.3191,-0.3183,-0.3169,-0.3149,-0.3171,-0.317,-0.3166,-0.3118,-0.3116,-0.3112,-0.3147,-0.3146,-0.3146,-0.3119,0,-0.3386,-0.3352,-0.3341,-0.3312,-0.3294,-0.3285,-0.3268,-0.3251,-0.324,-0.3222,-0.3209,-0.3189,-0.3191,-0.3183,-0.3169,-0.3155,-0.3139,-0.3157,-0.3129,-0.3128,-0.3133,-0.3108,-0.3107,-0.3082,-0.3115,-0.3115,-0.3114,0,-0.3361,-0.3343,-0.3312,-0.3288,-0.328,-0.3265,-0.3242,-0.3226,-0.3205,-0.3198,-0.3182,-0.3175,-0.3152,-0.3159,-0.3126,-0.3138,-0.3126,-0.3117,-0.3116,-0.3112,-0.3119,-0.3102,-0.3075,-0.307,-0.3109,-0.3109,-0.3109,0,-0.3355,-0.3322,-0.3299,-0.3289,-0.3261,-0.325,-0.3238,-0.3218,-0.3205,-0.3184,-0.3175,-0.3153,-0.314,-0.3122,-0.3108,-0.3115,-0.3076,-0.3082,-0.3068,-0.3068,-0.306,-0.306,-0.3029,-0.3054,-0.3054,-0.3054,-0.3054,0,-0.3336,-0.3317,-0.3295,-0.3281,-0.3258,-0.3245,-0.3222,-0.321,-0.3191,-0.3173,-0.3164,-0.3147,-0.313,-0.311,-0.3099,-0.3072,-0.3067,-0.3059,-0.3056,-0.3059,-0.306,-0.305,-0.3051,-0.3053,-0.3053,-0.3054,-0.3054,0,-0.3326,-0.3311,-0.3284,-0.3259,-0.3252,-0.3236,-0.3214,-0.3199,-0.3186,-0.3163,-0.3157,-0.3136,-0.3112,-0.3096,-0.3066,-0.3058,-0.3028,-0.3027,-0.3035,-0.3033,-0.3019,-0.302,-0.2979,-0.2972,-0.3003,-0.3003,-0.3003,0,-0.3314,-0.3299,-0.3272,-0.3259,-0.3246,-0.3226,-0.3211,-0.3196,-0.3181,-0.3155,-0.3142,-0.3117,-0.3096,-0.3057,-0.3039,-0.3014,-0.3011,-0.2998,-0.3007,-0.301,-0.3008,-0.3009,-0.3006,-0.2997,-0.2996,-0.2996,-0.2996,0,-0.3295,-0.3287,-0.3267,-0.3243,-0.3226,-0.3207,-0.3187,-0.3177,-0.3158,-0.3141,-0.3116,-0.3099,-0.3067,-0.3041,-0.3014,-0.3,-0.2994,-0.2993,-0.2988,-0.299,-0.2995,-0.299,-0.3029,-0.2994,-0.2994,-0.2995,-0.2995,-0.2995,-0.3282,-0.3267,-0.3245,-0.3222,-0.3205,-0.3186,-0.317,-0.3154,-0.3133,-0.3105,-0.3097,-0.3069,-0.3046,-0.301,-0.2995,-0.2972,-0.2974,-0.2967,-0.2965,-0.2963,-0.2962,-0.3,-0.2968,-0.2968,-0.2968,-0.2968,-0.2968,0,-0.3261,-0.3245,-0.3224,-0.3196,-0.3177,-0.3173,-0.315,-0.3134,-0.311,-0.3089,-0.3068,-0.3037,-0.3011,-0.299,-0.2963,-0.2949,-0.2945,-0.2942,-0.2942,-0.2938,-0.2963,-0.2969,-0.2945,-0.2945,-0.2945,-0.2945,-0.2945,-0.2945,-0.3247,-0.3221,-0.321,-0.3174,-0.3158,-0.3132,-0.3118,-0.31,-0.3083,-0.3049,-0.3027,-0.3013,-0.2991,-0.2962,-0.2937,-0.2931,-0.2921,-0.2918,-0.2911,-0.2935,-0.2937,-0.2939,-0.2945,-0.2916,-0.2916,-0.2888,-0.2888,-0.2888]},{"header":{"parameterUnit":"m.s-1","parameterCategory":1,"la1":30.2991,"la2":30.254,"lo1":-89.0895,"lo2":-89.0444,"dy":0.0017,"dx":0.0017,"nx":28,"ny":28,"refTime":"2025-07-03T21:00:00:Z","depth":0,"parameterNumber":3,"parameterNumberName":"V-component_of_WINDS"},"data":[0,0,0,0,0,0,0,0,0,0,0,0,0,0,0,0,0,0,0,0,0,0,0,0,0,0,0,0,0,0,0,0,0,0,0,0,0,0,0,0,0,0,0,0,0,0,0,0,0,0,0,0,0,0,0,0,0,0,-1.694,-1.694,0,-1.6999,-1.7,-1.7001,-1.7039,-1.704,-1.704,-1.704,-1.7099,-1.71,-1.7102,0,0,0,0,0,0,0,0,0,0,0,0,0,-1.6858,-1.6859,-1.694,-1.694,-1.6941,-1.6999,-1.7,-1.7001,-1.7039,-1.704,-1.704,-1.704,-1.7099,-1.71,-1.7102,0,0,0,0,0,0,0,0,0,0,0,0,0,-1.6903,-1.686,-1.6939,-1.6967,-1.697,-1.6999,-1.7,-1.7001,-1.7039,-1.704,-1.704,-1.704,-1.7098,-1.71,-1.7102,-1.7107,0,0,-1.7108,-1.7109,0,0,0,0,0,0,0,0,-1.69,-1.6906,-1.6963,-1.6966,-1.6969,-1.7012,-1.6993,-1.7036,-1.7039,-1.7013,-1.704,-1.704,-1.707,-1.7074,-1.7084,-1.711,-1.7112,-1.7108,-1.711,-1.711,-1.7111,0,0,0,0,0,0,0,-1.6897,-1.6904,-1.6963,-1.6963,-1.6967,-1.6976,-1.6983,-1.7001,-1.7038,-1.7015,-1.7018,-1.7025,-1.7072,-1.7082,-1.7086,-1.7113,-1.7108,-1.711,-1.7111,-1.7112,-1.7145,-1.7145,0,0,0,0,0,0,-1.689,-1.6901,-1.6961,-1.6965,-1.6935,-1.6978,-1.6985,-1.6998,-1.7038,-1.7045,-1.7025,-1.7026,-1.7079,-1.7084,-1.7088,-1.7096,-1.711,-1.7112,-1.7113,-1.7145,-1.7145,-1.7144,0,0,0,0,0,0,-1.6888,-1.6895,-1.6959,-1.6934,-1.6943,-1.6979,-1.6993,-1.6999,-1.701,-1.7045,-1.7052,-1.7029,-1.7079,-1.7085,-1.7102,-1.7099,-1.7113,-1.7115,-1.7146,-1.7145,-1.7145,-1.7112,0,0,0,0,0,0,-1.6886,-1.6894,-1.6896,-1.6933,-1.6944,-1.6972,-1.6992,-1.7,-1.7013,-1.7016,-1.7051,-1.7057,-1.708,-1.7099,-1.7104,-1.7102,-1.7117,-1.7146,-1.7145,-1.7145,-1.7114,-1.711,-1.7108,0,0,0,0,0,-1.6882,-1.6885,-1.6896,-1.6903,-1.6948,-1.6972,-1.6977,-1.7004,-1.7013,-1.7015,-1.7038,-1.7056,-1.7099,-1.71,-1.7106,-1.7105,-1.7146,-1.7146,-1.7145,-1.7115,-1.7111,-1.7108,0,0,0,0,0,0,-1.6846,-1.689,-1.6904,-1.6918,-1.6941,-1.6978,-1.6982,-1.6999,-1.702,-1.7022,-1.7054,-1.7061,-1.7074,-1.7091,-1.7092,-1.7111,-1.7124,-1.7125,-1.71,-1.7096,-1.7094,-1.7089,-1.7118,0,0,0,0,0,-1.6839,-1.6855,-1.6893,-1.6902,-1.6913,-1.6946,-1.6957,-1.6976,-1.7,-1.701,-1.7034,-1.7057,-1.7076,-1.7087,-1.7106,-1.7117,-1.7124,-1.7119,-1.7116,-1.7113,-1.7113,-1.7119,-1.7117,-1.7142,-1.7142,-1.7142,0,0,-1.6826,-1.6852,-1.686,-1.6895,-1.6915,-1.6931,-1.6953,-1.6969,-1.6981,-1.7012,-1.7029,-1.7048,-1.7076,-1.7089,-1.7096,-1.7104,-1.7108,-1.7112,-1.711,-1.7111,-1.7118,-1.7116,-1.7113,-1.7142,-1.7142,-1.7142,0,0,-1.681,-1.6831,-1.6841,-1.6861,-1.6891,-1.6913,-1.6915,-1.695,-1.6964,-1.6982,-1.7006,-1.702,-1.7051,-1.707,-1.7084,-1.7075,-1.7092,-1.708,-1.7065,-1.7071,-1.7069,-1.7067,-1.7063,-1.7061,-1.708,-1.708,-1.708,0,-1.6789,-1.6814,-1.6844,-1.6858,-1.6872,-1.6903,-1.6912,-1.693,-1.6965,-1.6974,-1.6982,-1.7022,-1.7043,-1.7061,-1.7059,-1.7069,-1.7072,-1.7076,-1.7067,-1.7065,-1.7064,-1.7061,-1.7059,-1.7078,-1.7079,-1.7079,-1.7079,0,-1.6787,-1.6804,-1.6808,-1.6841,-1.6856,-1.6868,-1.6899,-1.6911,-1.6928,-1.6949,-1.6967,-1.6993,-1.7018,-1.7024,-1.7041,-1.7044,-1.7048,-1.7061,-1.7074,-1.706,-1.7057,-1.7056,-1.7076,-1.7077,-1.7077,-1.7077,0,0,-1.6747,-1.6798,-1.6798,-1.6814,-1.685,-1.6863,-1.6876,-1.6901,-1.691,-1.6934,-1.6945,-1.6971,-1.6984,-1.6999,-1.7019,-1.7024,-1.7015,-1.7037,-1.7038,-1.7031,-1.7019,-1.7008,-1.7006,-1.7027,-1.7026,-1.7026,-1.7016,0,-1.6735,-1.6761,-1.6789,-1.6804,-1.682,-1.6849,-1.6861,-1.6884,-1.6904,-1.692,-1.6942,-1.6959,-1.6975,-1.6985,-1.6991,-1.7014,-1.7012,-1.7016,-1.7036,-1.7037,-1.7027,-1.7004,-1.6993,-1.6982,-1.7015,-1.7015,-1.7015,0,-1.6725,-1.6747,-1.6764,-1.6799,-1.6806,-1.6816,-1.6841,-1.6856,-1.6883,-1.6897,-1.6915,-1.6936,-1.6951,-1.6964,-1.6984,-1.6986,-1.6996,-1.7009,-1.7009,-1.7011,-1.7024,-1.7004,-1.6979,-1.6977,-1.7014,-1.7014,-1.7014,0,-1.6693,-1.6727,-1.6742,-1.6754,-1.6795,-1.6801,-1.6819,-1.6846,-1.6859,-1.6881,-1.689,-1.6913,-1.6925,-1.6943,-1.6969,-1.6976,-1.6987,-1.7002,-1.6998,-1.6997,-1.6998,-1.6997,-1.6972,-1.7006,-1.7006,-1.7006,-1.7006,0,-1.6676,-1.6685,-1.6728,-1.6737,-1.6748,-1.678,-1.679,-1.681,-1.6834,-1.6847,-1.6874,-1.6886,-1.6921,-1.6936,-1.6957,-1.6971,-1.6976,-1.6988,-1.6993,-1.6984,-1.6983,-1.6991,-1.6991,-1.7006,-1.7006,-1.7006,-1.7006,0,-1.6641,-1.6671,-1.6689,-1.6727,-1.6736,-1.6743,-1.6775,-1.6784,-1.6806,-1.6822,-1.6828,-1.6862,-1.6882,-1.6911,-1.6939,-1.6953,-1.6963,-1.6972,-1.6954,-1.6957,-1.6951,-1.695,-1.6929,-1.6927,-1.6963,-1.6963,-1.6963,0,-1.6628,-1.6636,-1.6674,-1.6685,-1.6702,-1.6719,-1.6733,-1.6765,-1.6778,-1.6809,-1.6815,-1.6837,-1.6856,-1.6886,-1.6913,-1.6935,-1.6944,-1.6935,-1.6948,-1.6939,-1.6943,-1.6941,-1.6942,-1.6932,-1.6931,-1.6931,-1.693,0,-1.66,-1.6615,-1.6634,-1.6658,-1.6674,-1.6695,-1.6716,-1.6724,-1.676,-1.6774,-1.6794,-1.6809,-1.6839,-1.686,-1.6886,-1.6903,-1.6922,-1.6927,-1.6927,-1.6917,-1.6906,-1.6911,-1.6944,-1.6927,-1.6927,-1.6927,-1.6927,-1.6928,-1.6575,-1.6583,-1.6612,-1.6632,-1.6652,-1.6672,-1.6683,-1.6707,-1.6725,-1.6751,-1.6769,-1.6789,-1.6816,-1.6853,-1.6869,-1.6885,-1.6893,-1.6893,-1.6893,-1.6892,-1.6889,-1.6905,-1.689,-1.689,-1.689,-1.689,-1.689,0,-1.6548,-1.6568,-1.6586,-1.6616,-1.6632,-1.6651,-1.6676,-1.6688,-1.6705,-1.6729,-1.6748,-1.6771,-1.6792,-1.6822,-1.6845,-1.6851,-1.6861,-1.6856,-1.6855,-1.6859,-1.6881,-1.6878,-1.6848,-1.6848,-1.6848,-1.6848,-1.6848,-1.6848,-1.6535,-1.655,-1.6568,-1.6592,-1.6613,-1.6632,-1.6645,-1.6664,-1.6683,-1.6708,-1.6726,-1.6746,-1.6771,-1.6797,-1.6817,-1.6825,-1.6831,-1.6824,-1.6834,-1.6853,-1.6857,-1.6861,-1.6858,-1.6825,-1.6825,-1.6811,-1.6811,-1.6811]}]]